Location: Cambridge (historical)
(38.6883°N, 119.0140°W)
Time: 17:28:56
(UTC+00:00)

Cosmos 1697 Rocket - Pass Details

Date: 29 October 2020
Orbit: 831 x 845 km, 71.0° (Epoch: 23 November)

Event Time Altitude Azimuth Distance (km) Brightness Sun altitude
Exits shadow 12:32:05 28° 323° (NW) 1,528 3.7 -21.6°
Maximum altitude 12:35:02 64° 251° (WSW) 934 2.6 -21.1°
Drops below altitude 10° 12:40:35 10° 171° (S) 2,455 5.2 -20.0°
Sets 12:43:03 0° 168° (SSE) 3,387 6.0 -19.5°
